Location: Passau
(48.5830°N, 13.4830°E)
Time: 11:50:18
(UTC+01:00)

BEESAT 3 - Visible Passes

Search period start: 01 December 2021 00:00
Search period end: 11 December 2021 00:00
Orbit: 477 x 511 km, 64.9° (Epoch: 30 November)

Date Brightness Start Highest point End Pass type
(mag) Time Alt. Az. Time Alt. Az. Time Alt. Az.
01 Dec ? 05:19:17 24° SSW 05:19:17 24° SSW 05:21:11 10° S visible
02 Dec ? 04:58:09 14° S 04:58:09 14° S 04:58:44 10° SSE visible
06 Dec ? 18:47:08 10° SSW 18:48:23 19° S 18:48:23 19° S visible
07 Dec ? 18:24:35 10° SSW 18:27:03 33° SSE 18:27:03 33° SSE visible
08 Dec ? 18:02:04 10° S 18:05:35 37° ESE 18:05:38 37° ESE visible
08 Dec ? 19:39:27 10° WSW 19:40:12 14° W 19:40:12 14° W visible
09 Dec ? 17:39:33 10° S 17:42:58 33° ESE 17:44:08 27° E visible
09 Dec ? 19:16:41 10° WSW 19:18:42 24° W 19:18:42 24° W visible
10 Dec ? 17:17:03 10° S 17:20:21 29° ESE 17:22:32 17° ENE visible
10 Dec ? 18:53:56 10° WSW 18:57:05 34° NW 18:57:05 34° NW visible
